Current weather by "City, St" or "zip code"  
 

Current Conditions: Shelton, Shelton Sanderson Field, WA

Fair


42.0 F

Last Updated on Apr 23 2021, 2:53 am PDT
Humidity: 89%
Wind Speed: SW 4.6 mph
Barometer 29.96 in
Dewpoint: 39.0 F
Visibility: 10.00 mi
Precip: --
Heat Index: NA
Wind Chill: 39 F
Current conditions at:

Shelton, Shelton Sanderson Field, WA (KSHN)

Lat: 47.23806 Lon: 123.14083

Local Radar Image active severe weather and emergency alerts image image weather storm and storm spotter reports image weather observation monitoring service image
Local
Radar
Active
Alerts
Storm Reports Obs
Monitoring

Sign-up For Email & Text Message Weather Alert Notification Services



Advertise Here

Observation History for Shelton, Shelton Sanderson Field, WA


Time Wind
(mph)
Vis
(mi)
Weather Precip (in) Temperature (F) Relative
Humidity
Wind
Chill
(F)
Heat
Index
(F)
Pressure
Air Dwpt altimeter
(in)
sea level
(mb)
Rmks
2:53 am PDT SW 4.6 10.00 Fair -- 42.0 39.0 89% 39 NA 29.96 1014.7
1:53 am PDT SW 5.8 10.00 Fair -- 42.0 39.0 89% 38 NA 29.96 1014.8
12:53 am PDT SW 8.1 10.00 Fair -- 43.0 39.9 89% 38 NA 29.97 1015.0
11:53 pm PDT SW 11.5 10.00 Fair -- 44.0 39.9 85% 38 NA 29.96 1014.9
10:53 pm PDT W 11.5 10.00 Fair -- 45.0 39.9 83% 39 NA 29.96 1014.9
9:53 pm PDT W 13.8 10.00 Fair -- 47.0 39.9 77% 41 NA 29.96 1014.9
8:53 pm PDT W 11.5 10.00 A Few Clouds -- 50.0 41.0 71% 46 NA 29.94 1014.1
7:53 pm PDT W 12.7 10.00 A Few Clouds -- 54.0 42.1 64% 50 NA 29.92 1013.5
6:53 pm PDT W 10.4 10.00 Fair -- 57.0 43.0 60% 55 NA 29.92 1013.2
5:53 pm PDT W 10.4 10.00 Fair -- 58.0 43.0 58% 56 NA 29.92 1013.3
4:53 pm PDT W 9.2 10.00 Fair -- 59.0 44.1 58% 57 NA 29.93 1013.6
4:53 pm PDT W 9.2 10.00 Fair -- 59.0 44.1 58% 57 NA 29.93 1013.6
3:53 pm PDT S 8.1 10.00 Overcast -- 57.0 44.1 62% 55 NA 29.93 1013.8
2:53 pm PDT SW 8.1 10.00 Overcast -- 57.0 44.1 62% 55 NA 29.95 1014.2
1:53 pm PDT 3.5 10.00 Overcast -- 56.0 44.1 65% NA NA 29.94 1014.1
12:53 pm PDT S 9.2 10.00 Overcast -- 55.0 45.0 69% 52 NA 29.94 1014.1
11:53 am PDT 4.6 10.00 Overcast -- 53.0 45.0 74% 52 NA 29.95 1014.3
10:53 am PDT N 0.0 10.00 Overcast -- 52.0 45.0 77% NA NA 29.95 1014.3
9:53 am PDT SW 3.5 10.00 Overcast -- 49.0 45.0 86% NA NA 29.94 1014.0
8:53 am PDT N 0.0 6.00 Overcast with Haze -- 48.0 43.0 83% NA NA 29.93 1013.8
7:53 am PDT N 0.0 10.00 Overcast -- 47.0 44.1 90% NA NA 29.93 1013.6
6:53 am PDT W 3.5 10.00 Overcast -- 47.0 44.1 90% NA NA 29.91 1012.8
5:53 am PDT W 6.9 10.00 Overcast -- 47.0 44.1 90% 44 NA 29.90 1012.5
4:53 am PDT W 8.1 10.00 Overcast -- 47.0 44.1 90% 43 NA 29.90 1012.6

Regional Weather Observation


Bremerton, Bremerton National Airport, WA (KPWT)

Fair
41.0 F

Tacoma, Tacoma Narrows Airport, WA (KTIW)

Fair
43.0 F

Fort Lewis / Gray U. S. Army Airfield, WA (KGRF)

Fair
39.0 F

Tacoma / McChord Air Force Base, WA (KTCM)

Fair
39.0 F

Seattle, Seattle-Tacoma International Airport, WA (KSEA)

A Few Clouds
46.0 F

Boeing Field - King County International Airport, WA (KBFI)

Fair
46.0 F

Advertise Here


Advertise Here